sat.trackr.live / text

‹ back to catalog

STARLINK-31896

NORAD 59851 · 2024-097S

PAYLOAD ACTIVE UNKNOWN

§ Identity

Operator
Country
US
Launch date
2024-05-23
Launch site
AFETR
Launch vehicle
Mass (kg)
RCS (m²)

Purposes: comms

External: N2YO · Heavens-Above · Gunter

§ Orbital elements

Epoch: 2026-09-21T07:17:39.903648Z

Period
94.27 min
Inclination
43.0013°
Eccentricity
0.0001196
Mean motion
15.27578739 rev/d
Perigee alt
482.2 km
Apogee alt
483.9 km
Semi-major
6,861.2 km
B*
1.8844e-5
RAAN
249.6208°
Arg perigee
272.1044°
Mean anomaly
87.9671°
Rev number
13,183

§ Raw data

STARLINK-318961 59851U 24097S   26264.30393407  .00000257  00000+0  18844-4 0  99912 59851  43.0013 249.6208 0001196 272.1044  87.9671 15.27578739131837

JSON: /api/v1/satellites/59851 · /tle

For live sub-satellite position, see the globe view (requires WebGL).

§ Visibility from observer

Set your observer location to see the next 7 days of passes ≥ 10°. The values pass through the URL so the page stays shareable.

No JS? Fill the form by hand. The geolocation button needs JavaScript.